Location: Spruce Knob
(38.6995°N, 79.5330°W)
Time: 22:04:03
(UTC-04:00)

A-11 Canister half - Pass Details

Date: 28 January 2022
Orbit: 1513 x 1686 km, 47.2° (Epoch: 24 May)

Event Time Altitude Azimuth Distance (km) Brightness Sun altitude
Rises 16:58:34 0° 251° (WSW) 4,790 13.8 5.6°
Reaches altitude 10° 17:01:45 10° 254° (WSW) 3,782 13.2 5.1°
Maximum altitude 17:11:16 68° 337° (NNW) 1,642 9.3 3.5°
Drops below altitude 10° 17:20:32 10° 61° (ENE) 3,683 10.4 1.8°
Sets 17:23:35 0° 64° (ENE) 4,659 10.8 1.3°
